CZ-6A DEB

Satellite information

Favourite Embed

Satellite Type and Status

DEBRISIN ORBIT

Key statistics

Satellite CZ-6A DEB at a glance.

Uptime

1089

Days in orbit

Revolutions

≈ 14.1

Per day

Orbit

SSO

Sun Synchronous Orbit

Inclination

98.9

Latest

Satellite identification and parameters

Extended collection of information and parameters for CZ-6A DEB.

Object identification

Identified? True

Debris? True

Object name: CZ-6A DEB

International designator: 2022-151GD

Object number (NORAD): 54453

Object ID (CCSDS): 54453

Country: PEOPLES REPUBLIC OF CHINA (PRC)

Current information (Y/N): Y

RCS size: SMALL

Orbital parameters

Period: 101.987 minutes

Inclination: 98.9167 deg

SMA: 7230.869 km

Apoapsis: 912.361 km

Periapsis: 793.107 km

RAAN: 315.5903 deg

Eccentricy: 0.0082462

Argument of periapsis: 221.5621 deg

Mean anomaly: 137.9262 deg

Mean motion: 14.11942467 rev/day

Mean motion (dot): 0.00002303 rev/day2

B* drag term: 0.0012434 1/REarth

Two-line elements (TLE)

Creation date: Nov. 3, 2025, 11:16 p.m.

Reference frame: TEME

Reference center: EARTH

Epoch: Nov. 3, 2025, 6:13 p.m. UTC

TLE line 0: 0 CZ-6A DEB

TLE line 1: 1 54453U 22151GD 25307.75951751 .00002303 00000-0 12434-2 0 9993

TLE line 2: 2 54453 98.9167 315.5903 0082462 221.5621 137.9262 14.11942467152760

Live tracking on map

Real-time ground track for satellite CZ-6A DEB.

In-orbit conjunctions

A list of the most updated potential collisions computed for object CZ-6A DEB.

Target Orbit TCA Probability of collision Miss distance Type
THORAD AGENA D DEB SSO 2025-06-21 22:50:16 0.0003034673 34.0 (m) DEBRIS
CZ-6A DEB LEO 2024-11-24 14:57:05 0.0001784521 858.0 (m) DEBRIS
METEOR 2-5 DEB LEO 2024-09-13 23:45:43 0.0004439317 43.0 (m) DEBRIS

Associated space launch

Chinese satellite reported for atmospheric/ocean/environmental/spatial parameter research purposes, details TBD.

CZ-6A DEB was lifted into orbit during the mission ‘Long March 6A | Yunhai 3’, on board a Long March 6A space rocket.

The launch took place on Nov. 11, 2022, 10:52 p.m. from Launch Complex 9A.

For more information about the launch, click the button.

Launch to space Long March 6A | Yunhai 3
Long March 6A | Yunhai 3

Agency: N/A

Status: Launch Successful

Launch date: Nov. 11, 2022, 10:52 p.m. UTC

Rocket: Long March 6A

Launch pad: Launch Complex 9A

Location: Taiyuan Satellite Launch Center, People's Republic of China

...

Latest news about this satellite

There are no fresh news available about this satellite. Check back as we update our databases every day.


Newsletter sign-up

Weekly statistics, charts and insights to help you stay on top of the space industry.